STARLINK-35952 (66520 NORAD) Tracking and Keplerian Element Data

This shows tracking and keplerian element data for the satellite.

Feedback or suggestion? Click here.




ElementValue
Catalog66520
NameSTARLINK-35952
Epoch Orbit474
Epoch Day353.13120364
Epoch Year2025
RAAN17.1684
Inclination42.997
Eccentricity0.0001158
Argument of Perigee196.1287
Mean Anonmoly163.9533
Mean Motion15.40737918
Decay Rate0.00021138
L11 66520U 25265E 25353.13120364 .00021138 00000+0 51124-3 0 9997
L22 66520 42.9970 17.1684 0001158 196.1287 163.9533 15.40737918 4748



Live tracking and technical data element details for STARLINK-35952 (NORAD 66520). STARLINK-35952 can be tracked NOW for your location showing map with azimuth and elevation plus other details from your city location.







IsCatalogInMostPopularTable: catalog: 66520, numindb: 3
Update: records affected: 1



GetName: 66520 STARLINK-35952

Hit Count: updated at: Tue, 10 Feb 2026 02:05:48 GMT